Time,TemperatureF,DewpointF,PressureIn,WindDirection,WindDirectionDegrees,WindSpeedMPH,WindSpeedGustMPH,Humidity,HourlyPrecipIn,Conditions,Clouds,dailyrainin,SoftwareType,DateUTC
2013-08-31 00:13:00,76.0,63.0,29.83,ENE,60,1.0,11.0,65,0.00,,,0.00,,2013-08-31 05:13:00,
2013-08-31 00:23:00,76.0,62.0,29.82,ENE,76,3.0,8.0,63,0.00,,,0.00,,2013-08-31 05:23:00,
2013-08-31 00:42:00,75.0,62.0,29.80,SE,135,3.0,9.0,64,0.00,,,0.00,,2013-08-31 05:42:00,
2013-08-31 00:52:00,75.0,62.0,29.80,SE,135,3.0,9.0,64,0.00,,,0.00,,2013-08-31 05:52:00,
2013-08-31 01:12:00,73.0,62.0,29.79,ESE,121,3.0,7.0,68,0.00,,,0.00,,2013-08-31 06:12:00,
2013-08-31 01:22:00,73.0,62.0,29.79,ESE,121,3.0,7.0,68,0.00,,,0.00,,2013-08-31 06:22:00,
2013-08-31 01:42:00,72.0,62.0,29.76,SSW,198,1.0,8.0,71,0.00,,,0.00,,2013-08-31 06:42:00,
2013-08-31 01:52:00,72.0,63.0,29.76,SSE,155,1.0,8.0,73,0.00,,,0.00,,2013-08-31 06:52:00,
2013-08-31 02:12:00,71.0,63.0,29.75,SSE,147,2.0,6.0,75,0.00,,,0.00,,2013-08-31 07:12:00,
2013-08-31 02:22:00,71.0,63.0,29.77,SSE,167,1.0,4.0,77,0.00,,,0.00,,2013-08-31 07:22:00,
2013-08-31 02:42:00,71.0,64.0,29.78,South,190,2.0,4.0,79,0.00,,,0.00,,2013-08-31 07:42:00,
2013-08-31 02:52:00,70.0,64.0,29.77,SSE,162,1.0,6.0,80,0.00,,,0.00,,2013-08-31 07:52:00,
2013-08-31 03:12:00,70.0,64.0,29.78,South,178,0.0,3.0,81,0.00,,,0.00,,2013-08-31 08:12:00,
2013-08-31 03:22:00,69.0,64.0,29.77,South,190,1.0,4.0,83,0.00,,,0.00,,2013-08-31 08:22:00,
2013-08-31 03:42:00,70.0,64.0,29.77,South,174,0.0,5.0,82,0.00,,,0.00,,2013-08-31 08:42:00,
2013-08-31 03:52:00,69.0,64.0,29.78,SSW,207,2.0,5.0,83,0.00,,,0.00,,2013-08-31 08:52:00,
2013-08-31 04:12:00,69.0,64.0,29.78,SSW,207,0.0,3.0,84,0.00,,,0.00,,2013-08-31 09:12:00,
2013-08-31 04:23:00,69.0,64.0,29.78,SSW,207,0.0,4.0,84,0.00,,,0.00,,2013-08-31 09:23:00,
2013-08-31 04:44:00,68.0,63.0,29.78,SSW,205,3.0,6.0,85,0.00,,,0.00,,2013-08-31 09:44:00,
2013-08-31 04:53:00,68.0,64.0,29.78,SSW,205,0.0,5.0,86,0.00,,,0.00,,2013-08-31 09:53:00,
2013-08-31 05:12:00,69.0,64.0,29.78,South,182,0.0,2.0,85,0.00,,,0.00,,2013-08-31 10:12:00,
2013-08-31 05:23:00,69.0,64.0,29.78,SSE,150,1.0,4.0,85,0.00,,,0.00,,2013-08-31 10:23:00,
2013-08-31 05:43:00,69.0,64.0,29.78,SSE,151,0.0,3.0,85,0.00,,,0.00,,2013-08-31 10:43:00,
2013-08-31 05:53:00,69.0,65.0,29.78,SE,138,0.0,3.0,86,0.00,,,0.00,,2013-08-31 10:53:00,
2013-08-31 06:12:00,69.0,65.0,29.78,ENE,59,2.0,4.0,86,0.00,,,0.00,,2013-08-31 11:12:00,
2013-08-31 06:22:00,68.0,64.0,29.78,SE,125,0.0,4.0,87,0.00,,,0.00,,2013-08-31 11:22:00,
2013-08-31 06:42:00,68.0,64.0,29.78,ESE,119,0.0,3.0,87,0.00,,,0.00,,2013-08-31 11:42:00,
2013-08-31 06:52:00,68.0,64.0,29.78,SE,126,2.0,5.0,87,0.00,,,0.00,,2013-08-31 11:52:00,
2013-08-31 07:12:00,68.0,64.0,29.78,ESE,112,3.0,6.0,88,0.00,,,0.00,,2013-08-31 12:12:00,
2013-08-31 07:22:00,68.0,65.0,29.78,ESE,123,2.0,5.0,89,0.00,,,0.00,,2013-08-31 12:22:00,
2013-08-31 07:42:00,68.0,65.0,29.77,SE,130,2.0,6.0,90,0.00,,,0.00,,2013-08-31 12:42:00,
2013-08-31 07:52:00,69.0,65.0,29.77,SE,144,2.0,6.0,88,0.00,,,0.00,,2013-08-31 12:52:00,
2013-08-31 08:11:00,71.0,67.0,29.78,SE,128,2.0,6.0,87,0.00,,,0.00,,2013-08-31 13:11:00,
2013-08-31 08:22:00,72.0,68.0,29.78,SSE,159,0.0,5.0,86,0.00,,,0.00,,2013-08-31 13:22:00,
2013-08-31 08:42:00,74.0,69.0,29.78,SE,132,0.0,4.0,84,0.00,,,0.00,,2013-08-31 13:42:00,
2013-08-31 08:52:00,75.0,69.0,29.78,SSE,167,1.0,5.0,83,0.00,,,0.00,,2013-08-31 13:52:00,
2013-08-31 09:12:00,76.0,71.0,29.78,South,182,2.0,4.0,84,0.00,,,0.00,,2013-08-31 14:12:00,
2013-08-31 09:22:00,77.0,72.0,29.78,SSW,204,2.0,5.0,85,0.00,,,0.00,,2013-08-31 14:22:00,
2013-08-31 09:32:00,77.0,72.0,29.78,SSW,204,2.0,5.0,85,0.00,,,0.00,,2013-08-31 14:32:00,
2013-08-31 09:42:00,77.0,72.0,29.78,SSW,204,2.0,5.0,85,0.00,,,0.00,,2013-08-31 14:42:00,
2013-08-31 09:52:00,75.0,72.0,29.78,ENE,63,1.0,4.0,91,0.02,,,0.02,,2013-08-31 14:52:00,
2013-08-31 10:12:00,76.0,73.0,29.77,NE,40,1.0,5.0,89,0.02,,,0.02,,2013-08-31 15:12:00,
2013-08-31 10:23:00,76.0,73.0,29.77,SE,126,2.0,4.0,91,0.02,,,0.02,,2013-08-31 15:23:00,
2013-08-31 10:44:00,79.0,74.0,29.77,South,171,3.0,7.0,85,0.00,,,0.02,,2013-08-31 15:44:00,
2013-08-31 10:55:00,81.0,75.0,29.76,SW,223,4.0,7.0,83,0.00,,,0.02,,2013-08-31 15:55:00,
2013-08-31 11:14:00,82.0,76.0,29.76,SSW,209,6.0,10.0,83,0.00,,,0.02,,2013-08-31 16:14:00,
2013-08-31 11:25:00,84.0,78.0,29.76,SSW,213,6.0,11.0,82,0.00,,,0.02,,2013-08-31 16:25:00,
2013-08-31 11:44:00,86.0,78.0,29.75,SW,223,7.0,13.0,76,0.00,,,0.02,,2013-08-31 16:44:00,
2013-08-31 11:52:00,86.0,76.0,29.75,SSW,212,8.0,13.0,73,0.00,,,0.02,,2013-08-31 16:52:00,
2013-08-31 12:13:00,87.0,78.0,29.74,SW,215,6.0,14.0,74,0.00,,,0.02,,2013-08-31 17:13:00,
2013-08-31 12:23:00,87.0,76.0,29.74,SW,215,7.0,13.0,71,0.00,,,0.02,,2013-08-31 17:23:00,
2013-08-31 12:43:00,88.0,78.0,29.73,SW,229,7.0,11.0,72,0.00,,,0.02,,2013-08-31 17:43:00,
2013-08-31 12:53:00,89.0,78.0,29.72,SSW,208,7.0,14.0,71,0.00,,,0.02,,2013-08-31 17:53:00,
2013-08-31 13:12:00,89.0,78.0,29.72,SW,225,8.0,12.0,70,0.00,,,0.02,,2013-08-31 18:12:00,
2013-08-31 13:22:00,89.0,79.0,29.72,SW,215,7.0,11.0,72,0.00,,,0.02,,2013-08-31 18:22:00,
2013-08-31 13:42:00,90.0,78.0,29.72,SSW,200,7.0,11.0,69,0.00,,,0.02,,2013-08-31 18:42:00,
2013-08-31 13:52:00,90.0,79.0,29.72,SSW,196,7.0,12.0,70,0.00,,,0.02,,2013-08-31 18:52:00,
2013-08-31 14:12:00,91.0,79.0,29.72,WSW,238,7.0,13.0,68,0.00,,,0.02,,2013-08-31 19:12:00,
2013-08-31 14:22:00,92.0,79.0,29.71,SSW,196,7.0,13.0,67,0.00,,,0.02,,2013-08-31 19:22:00,
2013-08-31 14:42:00,92.0,78.0,29.71,West,262,7.0,13.0,63,0.00,,,0.02,,2013-08-31 19:42:00,
2013-08-31 14:52:00,93.0,79.0,29.71,West,265,7.0,12.0,63,0.00,,,0.02,,2013-08-31 19:52:00,
2013-08-31 15:12:00,92.0,77.0,29.70,SW,234,7.0,13.0,62,0.00,,,0.02,,2013-08-31 20:12:00,
2013-08-31 15:22:00,93.0,79.0,29.70,WSW,253,6.0,13.0,63,0.00,,,0.02,,2013-08-31 20:22:00,
2013-08-31 15:42:00,92.0,77.0,29.70,West,263,8.0,16.0,62,0.00,,,0.02,,2013-08-31 20:42:00,
2013-08-31 15:52:00,92.0,77.0,29.69,WSW,240,8.0,13.0,62,0.00,,,0.02,,2013-08-31 20:52:00,
2013-08-31 16:12:00,92.0,78.0,29.70,WSW,257,9.0,15.0,63,0.00,,,0.02,,2013-08-31 21:12:00,
2013-08-31 16:22:00,92.0,77.0,29.69,WSW,257,7.0,14.0,62,0.00,,,0.02,,2013-08-31 21:22:00,
2013-08-31 16:54:00,90.0,77.0,29.67,WSW,252,7.0,12.0,66,0.00,,,0.02,,2013-08-31 21:54:00,
2013-08-31 17:13:00,88.0,77.0,29.67,West,273,5.0,10.0,70,0.00,,,0.02,,2013-08-31 22:13:00,
2013-08-31 17:23:00,88.0,79.0,29.67,WSW,240,4.0,13.0,75,0.00,,,0.02,,2013-08-31 22:23:00,
2013-08-31 17:43:00,91.0,79.0,29.67,WSW,251,5.0,12.0,68,0.00,,,0.02,,2013-08-31 22:43:00,
2013-08-31 17:53:00,90.0,78.0,29.67,WSW,258,6.0,12.0,68,0.00,,,0.02,,2013-08-31 22:53:00,
2013-08-31 18:12:00,86.0,77.0,29.67,North,350,7.0,18.0,74,0.00,,,0.02,,2013-08-31 23:12:00,
2013-08-31 18:22:00,85.0,77.0,29.69,NNE,20,6.0,13.0,76,0.00,,,0.02,,2013-08-31 23:22:00,
2013-08-31 18:42:00,84.0,75.0,29.69,North,355,3.0,9.0,75,0.00,,,0.02,,2013-08-31 23:42:00,
2013-08-31 18:52:00,83.0,75.0,29.69,NNE,30,3.0,8.0,78,0.00,,,0.02,,2013-08-31 23:52:00,
2013-08-31 19:11:00,83.0,76.0,29.70,NNE,29,4.0,9.0,80,0.00,,,0.02,,2013-09-01 00:11:00,
2013-08-31 19:22:00,83.0,76.0,29.70,NNE,29,4.0,9.0,80,0.00,,,0.02,,2013-09-01 00:22:00,
2013-08-31 19:42:00,82.0,76.0,29.71,NNE,16,2.0,6.0,81,0.00,,,0.02,,2013-09-01 00:42:00,
2013-08-31 19:52:00,82.0,76.0,29.71,NNE,16,2.0,6.0,81,0.00,,,0.02,,2013-09-01 00:52:00,
2013-08-31 20:11:00,80.0,75.0,29.71,NNE,18,0.0,3.0,85,0.00,,,0.02,,2013-09-01 01:11:00,
2013-08-31 20:22:00,79.0,74.0,29.71,NNE,15,2.0,5.0,86,0.00,,,0.02,,2013-09-01 01:22:00,
2013-08-31 20:42:00,79.0,75.0,29.71,NNE,19,2.0,6.0,87,0.00,,,0.02,,2013-09-01 01:42:00,
2013-08-31 20:52:00,78.0,74.0,29.72,NNE,27,2.0,6.0,88,0.00,,,0.02,,2013-09-01 01:52:00,
2013-08-31 21:12:00,78.0,74.0,29.72,NNE,19,1.0,5.0,89,0.00,,,0.02,,2013-09-01 02:12:00,
2013-08-31 21:22:00,77.0,74.0,29.71,North,5,1.0,5.0,90,0.00,,,0.02,,2013-09-01 02:22:00,
2013-08-31 21:43:00,76.0,73.0,29.71,NNW,339,3.0,7.0,91,0.00,,,0.02,,2013-09-01 02:43:00,
2013-08-31 21:53:00,75.0,72.0,29.71,NNW,333,2.0,9.0,91,0.00,,,0.02,,2013-09-01 02:53:00,
2013-08-31 22:12:00,75.0,73.0,29.72,NE,42,4.0,8.0,92,0.00,,,0.02,,2013-09-01 03:12:00,
2013-08-31 22:23:00,75.0,73.0,29.74,NNE,14,3.0,6.0,92,0.00,,,0.02,,2013-09-01 03:23:00,
2013-08-31 22:44:00,74.0,72.0,29.75,North,5,4.0,9.0,93,0.00,,,0.02,,2013-09-01 03:44:00,
2013-08-31 22:54:00,74.0,72.0,29.75,NNE,12,3.0,7.0,93,0.00,,,0.02,,2013-09-01 03:54:00,
2013-08-31 23:03:00,-999.0,-99.9,29.76,NNE,22,4.0,8.0,-999,-99.99,,,-99.99,,2013-09-01 04:03:00,
2013-08-31 23:14:00,74.0,72.0,29.76,NNE,22,4.0,8.0,93,0.00,,,0.02,,2013-09-01 04:14:00,
2013-08-31 23:25:00,73.0,71.0,29.77,NE,45,3.0,6.0,93,0.00,,,0.02,,2013-09-01 04:25:00,
2013-08-31 23:43:00,73.0,71.0,29.77,NNE,26,2.0,7.0,93,0.00,,,0.02,,2013-09-01 04:43:00,
2013-08-31 23:54:00,72.0,70.0,29.76,North,360,3.0,6.0,94,0.00,,,0.02,,2013-09-01 04:54:00,